CGYQB CYXU-CYXU

Flight info

Callsign CGYQB
Flight time 0h 14m
Altitude 3000
Route VFR CIRCUITS
Aircraft BG58

Departure

Time 2026-04-26 18:31
Airport London International Airport (CYXU)

Arrival

Time 2026-04-26 18:45
Airport London International Airport (CYXU)
Time Latitude Longitude Altitude Speed Heading
2026-04-26 18:22 43.03004 -81.15523 903 ft 0 kts 139°
2026-04-26 18:25 43.03003 -81.15522 903 ft 2 kts 142°
2026-04-26 18:25 43.02992 -81.15526 903 ft 0 kts 259°
2026-04-26 18:25 43.02993 -81.15531 903 ft 0 kts 283°
2026-04-26 18:26 43.03015 -81.15535 903 ft 8 kts 19°
2026-04-26 18:26 43.03059 -81.15482 903 ft 13 kts 48°
2026-04-26 18:26 43.03134 -81.15381 903 ft 16 kts 44°
2026-04-26 18:26 43.03212 -81.15274 903 ft 16 kts 50°
2026-04-26 18:27 43.03271 -81.15183 903 ft 10 kts 13°
2026-04-26 18:27 43.03323 -81.15233 903 ft 14 kts 319°
2026-04-26 18:27 43.03421 -81.15349 903 ft 22 kts 318°
2026-04-26 18:27 43.03534 -81.15487 903 ft 21 kts 318°
2026-04-26 18:28 43.03636 -81.15614 903 ft 19 kts 320°
2026-04-26 18:28 43.03700 -81.15714 903 ft 10 kts 281°
2026-04-26 18:28 43.03687 -81.15837 903 ft 14 kts 261°
2026-04-26 18:28 43.03669 -81.15972 903 ft 18 kts 259°
2026-04-26 18:29 43.03641 -81.16167 903 ft 18 kts 258°
2026-04-26 18:29 43.03661 -81.16274 903 ft 11 kts 353°
2026-04-26 18:29 43.03754 -81.16293 903 ft 16 kts 349°
2026-04-26 18:29 43.03823 -81.16249 903 ft 4 kts 83°
2026-04-26 18:30 43.03845 -81.16089 902 ft 51 kts 78°
2026-04-26 18:30 43.03947 -81.15364 949 ft 95 kts 80°
2026-04-26 18:30 43.04088 -81.14441 1199 ft 102 kts 79°
2026-04-26 18:30 43.04276 -81.13461 1482 ft 112 kts 66°
2026-04-26 18:31 43.04845 -81.12693 1789 ft 123 kts 28°
2026-04-26 18:31 43.05755 -81.12503 1973 ft 143 kts
2026-04-26 18:31 43.06795 -81.12590 2029 ft 153 kts
2026-04-26 18:31 43.07810 -81.12573 2469 ft 139 kts
2026-04-26 18:32 43.08795 -81.12534 2703 ft 146 kts
2026-04-26 18:32 43.09814 -81.12515 2744 ft 145 kts
2026-04-26 18:32 43.10820 -81.12520 2808 ft 145 kts
2026-04-26 18:32 43.11814 -81.12558 2897 ft 136 kts
2026-04-26 18:33 43.12740 -81.12628 3079 ft 135 kts
2026-04-26 18:33 43.13648 -81.12675 3365 ft 127 kts
2026-04-26 18:33 43.14545 -81.12666 3695 ft 135 kts
2026-04-26 18:33 43.15562 -81.12675 3763 ft 155 kts
2026-04-26 18:34 43.16648 -81.12676 3886 ft 158 kts
2026-04-26 18:34 43.17760 -81.12781 3995 ft 164 kts 359°
2026-04-26 18:34 43.18891 -81.12929 3993 ft 158 kts 359°
2026-04-26 18:34 43.19966 -81.13119 4000 ft 154 kts 358°
2026-04-26 18:35 43.21011 -81.13328 4001 ft 149 kts 358°
2026-04-26 18:35 43.22024 -81.13477 4002 ft 147 kts 359°
2026-04-26 18:35 43.23045 -81.13628 4001 ft 149 kts 360°
2026-04-26 18:35 43.24075 -81.13792 4002 ft 149 kts 358°
2026-04-26 18:36 43.25132 -81.14097 4009 ft 166 kts 335°
2026-04-26 18:36 43.25881 -81.15338 4022 ft 178 kts 291°
2026-04-26 18:36 43.26011 -81.17070 4017 ft 186 kts 270°
2026-04-26 18:36 43.26004 -81.18866 4010 ft 189 kts 271°
2026-04-26 18:37 43.26002 -81.20650 4041 ft 179 kts 271°
2026-04-26 18:37 43.26007 -81.22417 3505 ft 195 kts 271°
2026-04-26 18:37 43.26105 -81.24241 3495 ft 190 kts 284°
2026-04-26 18:37 43.26491 -81.25939 3499 ft 188 kts 276°
2026-04-26 18:38 43.26183 -81.27621 3489 ft 186 kts 232°
2026-04-26 18:38 43.25178 -81.28602 3496 ft 176 kts 189°
2026-04-26 18:38 43.24018 -81.28397 3493 ft 168 kts 146°
2026-04-26 18:38 43.22966 -81.27789 3490 ft 158 kts 166°
2026-04-26 18:39 43.21874 -81.27575 2994 ft 164 kts 167°
2026-04-26 18:39 43.20755 -81.27316 2622 ft 158 kts 165°
2026-04-26 18:39 43.19679 -81.27081 2019 ft 154 kts 166°
2026-04-26 18:39 43.18730 -81.26874 1962 ft 123 kts 166°
2026-04-26 18:40 43.17925 -81.26724 1979 ft 114 kts 166°
2026-04-26 18:40 43.17160 -81.26587 1963 ft 108 kts 166°
2026-04-26 18:40 43.16317 -81.26405 2023 ft 138 kts 166°
2026-04-26 18:40 43.15305 -81.26166 2023 ft 160 kts 165°
2026-04-26 18:41 43.14184 -81.25898 2020 ft 167 kts 164°
2026-04-26 18:41 43.13034 -81.25640 2047 ft 167 kts 167°
2026-04-26 18:41 43.11903 -81.25421 1985 ft 165 kts 168°
2026-04-26 18:41 43.10739 -81.25190 1913 ft 172 kts 167°
2026-04-26 18:42 43.09544 -81.24963 1930 ft 165 kts 168°
2026-04-26 18:42 43.08400 -81.24733 1908 ft 168 kts 167°
2026-04-26 18:42 43.07252 -81.24424 1948 ft 165 kts 157°
2026-04-26 18:42 43.06234 -81.23723 1969 ft 165 kts 143°
2026-04-26 18:43 43.05283 -81.22808 1730 ft 165 kts 140°
2026-04-26 18:43 43.04440 -81.21831 1577 ft 146 kts 135°
2026-04-26 18:43 43.03734 -81.21042 1456 ft 119 kts 135°
2026-04-26 18:43 43.03330 -81.20096 1552 ft 120 kts 96°
2026-04-26 18:44 43.03446 -81.18923 1433 ft 131 kts 79°
2026-04-26 18:44 43.03618 -81.17712 1156 ft 122 kts 79°
2026-04-26 18:44 43.03758 -81.16709 967 ft 98 kts 79°
2026-04-26 18:44 43.03880 -81.15845 905 ft 81 kts 79°
2026-04-26 18:45 43.03950 -81.15357 901 ft 2 kts 79°
2026-04-26 18:45 43.03950 -81.15284 904 ft 35 kts 81°
2026-04-26 18:45 43.04048 -81.14637 903 ft 95 kts 78°
2026-04-26 18:45 43.04199 -81.13659 927 ft 113 kts 77°
2026-04-26 18:46 43.04361 -81.12617 1244 ft 107 kts 77°
2026-04-26 18:46 43.04332 -81.11630 1404 ft 111 kts 118°
2026-04-26 18:46 43.03629 -81.11116 1410 ft 126 kts 163°
2026-04-26 18:46 43.02749 -81.11079 1604 ft 133 kts 193°
2026-04-26 18:47 43.02135 -81.11961 1622 ft 133 kts 248°
2026-04-26 18:47 43.01888 -81.13252 1753 ft 145 kts 256°
2026-04-26 18:47 43.01674 -81.14604 1975 ft 146 kts 256°
2026-04-26 18:47 43.01499 -81.15999 2104 ft 152 kts 258°
2026-04-26 18:48 43.01293 -81.17485 2074 ft 167 kts 258°
2026-04-26 18:48 43.01245 -81.19073 1987 ft 165 kts 287°
2026-04-26 18:48 43.01895 -81.20194 1841 ft 145 kts 335°
2026-04-26 18:48 43.02763 -81.20580 1805 ft 120 kts
2026-04-26 18:49 43.03449 -81.20043 1592 ft 117 kts 70°
2026-04-26 18:49 43.03517 -81.18975 1391 ft 115 kts 89°
2026-04-26 18:49 43.03598 -81.17858 1174 ft 118 kts 81°
2026-04-26 18:49 43.03738 -81.16870 1002 ft 99 kts 79°
2026-04-26 18:50 43.03869 -81.15935 913 ft 96 kts 78°
2026-04-26 18:50 43.03981 -81.15158 903 ft 83 kts 79°
2026-04-26 18:50 43.04112 -81.14223 1056 ft 107 kts 80°
2026-04-26 18:50 43.04253 -81.13184 1329 ft 114 kts 80°
2026-04-26 18:51 43.04411 -81.12088 1556 ft 120 kts 78°
2026-04-26 18:51 43.04897 -81.11179 1850 ft 128 kts 27°
2026-04-26 18:51 43.05776 -81.10968 2123 ft 133 kts 358°
2026-04-26 18:51 43.06614 -81.11567 2443 ft 142 kts 315°
2026-04-26 18:52 43.06986 -81.12803 2757 ft 144 kts 274°
2026-04-26 18:52 43.07046 -81.14194 2999 ft 155 kts 275°
2026-04-26 18:52 43.07151 -81.15755 2994 ft 169 kts 276°
2026-04-26 18:52 43.07256 -81.17363 3018 ft 171 kts 276°
2026-04-26 18:53 43.07363 -81.19004 3009 ft 175 kts 276°
2026-04-26 18:53 43.07472 -81.20677 2990 ft 177 kts 276°
2026-04-26 18:53 43.07599 -81.22381 2997 ft 183 kts 275°
2026-04-26 18:53 43.07688 -81.24092 3005 ft 182 kts 275°
2026-04-26 18:54 43.07795 -81.25808 3007 ft 181 kts 275°
2026-04-26 18:54 43.07916 -81.27521 3019 ft 183 kts 276°
2026-04-26 18:54 43.08031 -81.29268 2999 ft 181 kts 275°
2026-04-26 18:54 43.08142 -81.30941 2991 ft 166 kts 275°
2026-04-26 18:55 43.08238 -81.32433 2983 ft 152 kts 276°
2026-04-26 18:55 43.08324 -81.33779 2979 ft 134 kts 275°
2026-04-26 18:55 43.08403 -81.35084 2957 ft 143 kts 276°
2026-04-26 18:55 43.08491 -81.36453 3001 ft 152 kts 276°
2026-04-26 18:56 43.08469 -81.37965 3025 ft 170 kts 251°
2026-04-26 18:56 43.07828 -81.39356 3021 ft 178 kts 220°
2026-04-26 18:56 43.06748 -81.40112 3021 ft 175 kts 187°
2026-04-26 18:56 43.05558 -81.40034 2995 ft 169 kts 165°
2026-04-26 18:57 43.04407 -81.39723 2999 ft 171 kts 166°
2026-04-26 18:57 43.04011 -81.39624 3013 ft 171 kts 166°
2026-04-26 18:57 43.02211 -81.38530 3000 ft 171 kts 135°
2026-04-26 18:57 43.01501 -81.37271 3034 ft 166 kts 114°
2026-04-26 18:58 43.01171 -81.35746 2992 ft 167 kts 95°
2026-04-26 18:58 43.01179 -81.34701 3016 ft 167 kts 84°
2026-04-26 18:58 43.01396 -81.33147 3007 ft 166 kts 78°
2026-04-26 18:58 43.01632 -81.31598 2992 ft 166 kts 79°
2026-04-26 18:59 43.01846 -81.30044 3002 ft 166 kts 80°
2026-04-26 18:59 43.02067 -81.28492 2992 ft 165 kts 80°
2026-04-26 18:59 43.02279 -81.26953 2988 ft 164 kts 80°
2026-04-26 18:59 43.02494 -81.25480 2600 ft 154 kts 81°
2026-04-26 19:00 43.02674 -81.24156 2443 ft 129 kts 81°
2026-04-26 19:00 43.02866 -81.23043 2087 ft 121 kts 78°
2026-04-26 19:00 43.03041 -81.21896 1727 ft 120 kts 82°
2026-04-26 19:00 43.03190 -81.20801 1566 ft 110 kts 82°
2026-04-26 19:01 43.03322 -81.19770 1449 ft 111 kts 82°
2026-04-26 19:01 43.03476 -81.18700 1290 ft 117 kts 82°
2026-04-26 19:01 43.03630 -81.17645 1135 ft 103 kts 81°
2026-04-26 19:01 43.03764 -81.16684 988 ft 109 kts 79°
2026-04-26 19:02 43.03880 -81.15831 902 ft 52 kts 79°
2026-04-26 19:02 43.03944 -81.15404 903 ft 34 kts 79°
2026-04-26 19:02 43.03953 -81.15340 903 ft 0 kts 78°
2026-04-26 19:04 43.03961 -81.15286 904 ft 31 kts 81°
2026-04-26 19:05 43.04150 -81.13770 1169 ft 102 kts 82°
2026-04-26 19:05 43.04175 -81.12782 1479 ft 111 kts 99°
2026-04-26 19:05 43.03747 -81.11861 1746 ft 124 kts 143°
2026-04-26 19:06 43.02860 -81.11600 1921 ft 150 kts 189°
2026-04-26 19:06 43.02046 -81.12533 1821 ft 159 kts 243°
2026-04-26 19:06 43.01769 -81.13988 1777 ft 161 kts 260°
2026-04-26 19:06 43.01576 -81.15492 1630 ft 157 kts 258°
2026-04-26 19:07 43.01370 -81.16971 1584 ft 158 kts 259°
2026-04-26 19:07 43.01358 -81.18408 1659 ft 150 kts 296°
2026-04-26 19:07 43.02077 -81.19305 1480 ft 143 kts 347°
2026-04-26 19:07 43.03028 -81.19503 1288 ft 133 kts 15°
2026-04-26 19:08 43.03561 -81.18686 1300 ft 122 kts 87°
2026-04-26 19:08 43.03652 -81.17548 1125 ft 120 kts 81°
2026-04-26 19:08 43.03792 -81.16474 936 ft 108 kts 80°
2026-04-26 19:08 43.03910 -81.15590 910 ft 89 kts 79°
2026-04-26 19:09 43.04046 -81.14657 1097 ft 107 kts 79°
2026-04-26 19:09 43.04181 -81.13608 1359 ft 114 kts 82°
2026-04-26 19:09 43.04093 -81.12531 1609 ft 123 kts 124°
2026-04-26 19:09 43.03305 -81.12041 1952 ft 132 kts 170°
2026-04-26 19:10 43.02409 -81.12324 2277 ft 139 kts 214°
2026-04-26 19:10 43.01824 -81.13415 2592 ft 146 kts 240°
2026-04-26 19:10 43.01338 -81.14612 2986 ft 147 kts 237°
2026-04-26 19:10 43.00791 -81.15935 3009 ft 171 kts 238°
2026-04-26 19:11 43.00207 -81.17386 3026 ft 179 kts 239°
2026-04-26 19:11 42.99600 -81.18896 3026 ft 183 kts 238°
2026-04-26 19:11 42.98984 -81.20408 3001 ft 176 kts 239°
2026-04-26 19:11 42.98400 -81.21851 3006 ft 173 kts 240°
2026-04-26 19:12 42.97827 -81.23256 2986 ft 168 kts 239°
2026-04-26 19:12 42.97248 -81.24633 2989 ft 165 kts 238°
2026-04-26 19:12 42.96692 -81.26001 2988 ft 166 kts 239°
2026-04-26 19:12 42.96144 -81.27389 2986 ft 164 kts 240°
2026-04-26 19:13 42.95602 -81.28728 2995 ft 159 kts 239°
2026-04-26 19:13 42.95058 -81.30049 2993 ft 159 kts 239°
2026-04-26 19:13 42.94509 -81.31364 3002 ft 158 kts 239°
2026-04-26 19:13 42.93977 -81.32696 3012 ft 160 kts 241°
2026-04-26 19:14 42.93718 -81.34148 2997 ft 157 kts 270°
2026-04-26 19:14 42.93828 -81.35651 2971 ft 160 kts 277°
2026-04-26 19:14 42.94096 -81.37052 3001 ft 151 kts 313°
2026-04-26 19:14 42.94642 -81.37562 3033 ft 143 kts 351°
2026-04-26 19:15 42.96015 -81.37510 3012 ft 155 kts
2026-04-26 19:15 42.97065 -81.37797 3001 ft 151 kts 353°
2026-04-26 19:15 42.98082 -81.38024 3016 ft 148 kts 355°
2026-04-26 19:15 42.99074 -81.38147 3009 ft 134 kts 11°
2026-04-26 19:16 42.99879 -81.37769 2973 ft 112 kts 35°
2026-04-26 19:16 43.00463 -81.37137 2980 ft 110 kts 52°
2026-04-26 19:16 43.00921 -81.36170 3051 ft 132 kts 69°
2026-04-26 19:16 43.01154 -81.34855 3049 ft 151 kts 81°
2026-04-26 19:17 43.01360 -81.33410 3039 ft 157 kts 80°
2026-04-26 19:17 43.01561 -81.31901 3025 ft 163 kts 81°
2026-04-26 19:17 43.01787 -81.30370 3003 ft 165 kts 79°
2026-04-26 19:17 43.02016 -81.28798 2833 ft 173 kts 80°
2026-04-26 19:18 43.02242 -81.27241 2625 ft 160 kts 80°
2026-04-26 19:18 43.02442 -81.25923 2382 ft 126 kts 81°
2026-04-26 19:18 43.02606 -81.24781 2221 ft 127 kts 82°
2026-04-26 19:18 43.02781 -81.23509 2051 ft 143 kts 80°
2026-04-26 19:19 43.02968 -81.22196 1847 ft 141 kts 81°
2026-04-26 19:19 43.03145 -81.20975 1620 ft 114 kts 81°
2026-04-26 19:19 43.03294 -81.19977 1470 ft 112 kts 83°
2026-04-26 19:19 43.03449 -81.18832 1309 ft 129 kts 81°
2026-04-26 19:20 43.03614 -81.17694 1137 ft 114 kts 81°
2026-04-26 19:20 43.03716 -81.17001 1013 ft 107 kts 82°
2026-04-26 19:20 43.03876 -81.15821 902 ft 79 kts 78°
2026-04-26 19:20 43.04003 -81.15030 970 ft 98 kts 79°
2026-04-26 19:21 43.04174 -81.14053 1135 ft 112 kts 79°
2026-04-26 19:21 43.04339 -81.12968 1266 ft 122 kts 78°
2026-04-26 19:21 43.04557 -81.11748 1279 ft 137 kts 73°
2026-04-26 19:21 43.04844 -81.10550 1477 ft 131 kts 70°
2026-04-26 19:22 43.05179 -81.09375 1575 ft 135 kts 70°
2026-04-26 19:22 43.05616 -81.08204 1629 ft 137 kts 59°
2026-04-26 19:22 43.05975 -81.07095 1990 ft 122 kts 89°